FW1563 Houston TX US current weather conditions

sailwx.info

Wind from 282 at 5 knots gusting 10

Air temperature 32.2° C
Dewpoint 26.3° C

Last reported at 2020-Aug-14 16:06 UTC.
Time now 2020-Aug-14 16:56 UTC

Location: N 29°39' W 095°08'.
View on Google Maps.

See reports from other nearby stations

  
Tides and Currents Weather Stations Pressure Air Temp Water Temp Dewpoint Dewpoint Depression Visibility Wind Speed Wind Dir Waves Ship Positions
date/time (UTC)wind fromknots sea level pressurealtimeterstation pressurevisibilityair tempwater tempwave heightnotes
2020-Aug-14 16:06 282 5 gusting 10 32.2
2020-Aug-14 15:53 239 5 gusting 12 32.2
2020-Aug-14 15:48 268 5 gusting 12 31.7
2020-Aug-14 15:43 211 5 gusting 10 31.7
2020-Aug-14 15:38 227 5 gusting 10 31.7
2020-Aug-14 15:33 232 4 gusting 9 31.7
2020-Aug-14 15:28 268 5 gusting 13 31.7
2020-Aug-14 15:23 232 5 gusting 13 31.1
2020-Aug-14 15:18 259 3 gusting 10 31.1
2020-Aug-14 15:13 249 4 gusting 8 31.1
2020-Aug-14 15:08 232 5 gusting 11 31.1
2020-Aug-14 15:03 245 5 gusting 11 31.1
2020-Aug-14 14:58 248 4 gusting 11 30.6
2020-Aug-14 14:53 269 5 gusting 11 30.6
2020-Aug-14 14:48 230 4 gusting 10 30.6
2020-Aug-14 14:43 221 4 gusting 10 30.6
2020-Aug-14 14:38 171 4 gusting 10 30.0
2020-Aug-14 14:33 288 5 gusting 13 30.0
2020-Aug-14 14:28 264 5 gusting 13 30.0
2020-Aug-14 14:24 248 4 gusting 9 28.9
2020-Aug-14 14:03 229 5 gusting 9 28.9
2020-Aug-14 13:53 236 3 gusting 9 28.3
2020-Aug-14 13:48 156 2 gusting 7 28.3
2020-Aug-14 13:38 242 2 gusting 7 28.3
2020-Aug-14 13:33 178 1 gusting 4 27.8
2020-Aug-14 13:28 233 2 gusting 7 27.8
2020-Aug-14 13:23 205 2 gusting 7 27.8
2020-Aug-14 13:18 249 3 gusting 7 27.2
2020-Aug-14 13:08 244 2 gusting 7 27.2
2020-Aug-14 13:03 246 1 gusting 6 26.7
2020-Aug-14 12:56 246 2 gusting 6 26.7
2020-Aug-14 12:48 245 2 gusting 6 26.7
2020-Aug-14 12:43 261 2 gusting 6 26.7
2020-Aug-14 12:38 240 2 gusting 5 26.1
2020-Aug-14 12:33 225 2 gusting 6 26.1
2020-Aug-14 12:28 209 2 gusting 6 26.1
2020-Aug-14 12:23 202 2 gusting 6 26.1
2020-Aug-14 12:18 238 1 gusting 6 26.1
2020-Aug-14 12:13 232 1 gusting 4 26.1
2020-Aug-14 12:03 251 0 gusting 4 26.1
2020-Aug-14 11:58 239 0 gusting 2 26.1
2020-Aug-14 11:53 239 1 gusting 4 26.1
2020-Aug-14 11:48 236 1 gusting 4 26.1
2020-Aug-14 11:43 240 0 gusting 3 26.1
2020-Aug-14 11:33 245 1 gusting 4 26.1
2020-Aug-14 11:28 244 1 gusting 3 25.6
2020-Aug-14 11:23 241 1 gusting 3 25.6
2020-Aug-14 11:18 232 0 gusting 2 25.6
2020-Aug-14 11:13 173 0 gusting 2 25.6
2020-Aug-14 11:07 201 0 gusting 3 25.6
2020-Aug-14 11:03 259 0 gusting 3 25.6
2020-Aug-14 10:58 202 0 gusting 2 25.6
2020-Aug-14 10:52 186 0 gusting 3 25.6
2020-Aug-14 10:47 184 1 gusting 3 26.1
2020-Aug-14 10:42 176 1 gusting 3 26.1
2020-Aug-14 10:37 173 1 gusting 4 26.1
2020-Aug-14 10:30 173 0 gusting 2 26.1
2020-Aug-14 10:22 173 0 gusting 4 26.1
2020-Aug-14 10:17 173 0 gusting 4 26.1
2020-Aug-14 10:12 194 0 gusting 1 26.1
2020-Aug-14 10:10 194 0 gusting 1 26.1
2020-Aug-14 10:02 194 0 gusting 3 26.1
2020-Aug-14 10:00 194 0 gusting 3 26.1
2020-Aug-14 09:52 214 26.1
2020-Aug-14 09:47 214 0 gusting 1 26.1
2020-Aug-14 09:42 214 0 gusting 1 26.1
2020-Aug-14 09:37 208 0 gusting 2 26.1
2020-Aug-14 09:32 208 0 gusting 2 26.1
2020-Aug-14 09:27 242 0 gusting 2 26.1
2020-Aug-14 09:22 242 0 gusting 3 26.1
2020-Aug-14 09:17 242 0 gusting 3 26.1
2020-Aug-14 09:12 208 0 gusting 1 26.7
2020-Aug-14 09:07 191 0 gusting 1 26.7
2020-Aug-14 09:02 191 0 gusting 1 26.7
2020-Aug-14 08:57 191 0 gusting 2 26.7
2020-Aug-14 08:52 191 0 gusting 3 26.7
2020-Aug-14 08:47 164 0 gusting 3 26.7
2020-Aug-14 08:42 195 0 gusting 2 26.7
2020-Aug-14 08:37 195 0 gusting 2 26.7
2020-Aug-14 08:32 205 0 gusting 2 26.7
2020-Aug-14 08:27 204 0 gusting 2 26.7
2020-Aug-14 08:22 229 1 gusting 2 26.7
2020-Aug-14 08:17 251 1 gusting 3 26.7
2020-Aug-14 08:12 251 0 gusting 3 26.7
2020-Aug-14 08:07 182 0 gusting 1 26.7
2020-Aug-14 08:02 182 0 gusting 1 26.7
2020-Aug-14 07:57 182 0 gusting 2 26.7
2020-Aug-14 07:52 182 1 gusting 3 26.7
2020-Aug-14 07:47 204 1 gusting 3 26.7
2020-Aug-14 07:42 183 0 gusting 3 26.7
2020-Aug-14 07:37 183 0 gusting 3 26.7
2020-Aug-14 07:32 183 0 gusting 2 26.7
2020-Aug-14 07:29 207 0 gusting 2 26.7
2020-Aug-14 07:21 207 0 gusting 1 26.7
2020-Aug-14 07:17 205 26.7
2020-Aug-14 07:11 205 26.7
2020-Aug-14 07:07 205 0 gusting 1 26.7
2020-Aug-14 07:02 205 1 gusting 2 26.7
2020-Aug-14 06:56 205 1 gusting 2 27.2
2020-Aug-14 06:52 174 0 gusting 2 27.2
2020-Aug-14 06:47 174 0 gusting 4 27.2
2020-Aug-14 06:41 173 0 gusting 4 27.2
2020-Aug-14 06:36 180 0 gusting 2 27.2
2020-Aug-14 06:31 197 0 gusting 2 27.2
2020-Aug-14 06:26 171 0 gusting 3 27.2
2020-Aug-14 06:21 171 1 gusting 3 27.2
2020-Aug-14 06:16 171 1 gusting 3 27.2
2020-Aug-14 06:11 243 0 gusting 3 27.2
2020-Aug-14 06:01 269 0 gusting 5 27.2
2020-Aug-14 05:59 170 1 gusting 5 27.2
2020-Aug-14 05:51 171 1 gusting 4 27.2
2020-Aug-14 05:46 169 1 gusting 4 27.2
2020-Aug-14 05:41 183 1 gusting 3 27.2
2020-Aug-14 05:36 183 1 gusting 3 27.2
2020-Aug-14 05:31 183 1 gusting 3 27.8
2020-Aug-14 05:26 181 1 gusting 3 27.8
2020-Aug-14 05:21 180 1 gusting 4 27.8
2020-Aug-14 05:16 185 1 gusting 4 27.8
2020-Aug-14 05:14 173 0 gusting 5 27.8
2020-Aug-14 05:06 166 1 gusting 5 27.8
2020-Aug-14 05:01 188 1 gusting 5 27.8
2020-Aug-14 04:51 196 1 gusting 4 27.8
2020-Aug-14 04:46 192 2 gusting 5 27.8
2020-Aug-14 04:36 176 2 gusting 6 27.8
2020-Aug-14 04:31 176 2 gusting 6 27.8
2020-Aug-14 04:26 198 2 gusting 5 27.8
2020-Aug-14 04:16 171 2 gusting 7 27.8
2020-Aug-14 04:11 173 2 gusting 7 27.8
2020-Aug-14 04:06 213 2 gusting 6 28.3
2020-Aug-14 04:01 174 2 gusting 6 28.3
2020-Aug-14 03:51 174 2 gusting 7 28.3
2020-Aug-14 03:41 199 2 gusting 7 28.3
2020-Aug-14 03:38 174 3 gusting 8 28.3
2020-Aug-14 03:34 171 3 gusting 8 28.9
2020-Aug-14 03:21 176 2 gusting 6 28.9
2020-Aug-14 03:16 176 3 gusting 8 28.9
2020-Aug-14 03:11 169 3 gusting 8 28.9
2020-Aug-14 03:06 164 3 gusting 8 28.9
2020-Aug-14 03:01 189 4 gusting 9 28.9
2020-Aug-14 02:55 164 4 gusting 9 28.9
2020-Aug-14 02:53 186 5 gusting 10 29.4
2020-Aug-14 02:45 173 5 gusting 10 29.4
2020-Aug-14 02:40 169 3 gusting 7 29.4
2020-Aug-14 02:36 158 3 gusting 7 29.4
2020-Aug-14 02:28 190 2 gusting 7 29.4
2020-Aug-14 02:20 162 3 gusting 6 30.0
2020-Aug-14 02:18 182 3 gusting 6 30.0
2020-Aug-14 02:13 150 3 gusting 7 30.0
2020-Aug-14 02:08 209 3 gusting 6 30.0
2020-Aug-14 01:55 178 2 gusting 6 30.0
2020-Aug-14 01:50 129 2 gusting 6 30.6
2020-Aug-14 01:48 141 3 gusting 6 30.6
2020-Aug-14 01:40 163 3 gusting 7 30.6
2020-Aug-14 01:35 163 4 gusting 8 30.6
2020-Aug-14 01:30 144 2 gusting 5 30.6
2020-Aug-14 01:20 174 3 gusting 7 31.1
2020-Aug-14 01:18 174 3 gusting 7 31.1
2020-Aug-14 01:10 186 3 gusting 6 31.1
2020-Aug-14 01:05 170 3 gusting 6 31.1
2020-Aug-14 01:03 174 3 gusting 6 31.7
2020-Aug-14 00:55 143 4 gusting 7 31.7
2020-Aug-14 00:50 177 4 gusting 7 31.7
2020-Aug-14 00:45 150 4 gusting 8 31.7
2020-Aug-14 00:40 130 5 gusting 11 31.7
2020-Aug-14 00:35 176 5 gusting 11 32.2
2020-Aug-14 00:25 154 4 gusting 10 32.2
2020-Aug-14 00:20 194 4 gusting 10 32.2
2020-Aug-14 00:15 190 5 gusting 9 32.8
2020-Aug-14 00:13 136 5 gusting 11 32.8
2020-Aug-14 00:05 165 6 gusting 12 32.8
2020-Aug-14 00:00 152 6 gusting 12 32.8
2020-Aug-13 23:05 144 6 gusting 13 33.9
2020-Aug-13 23:00 189 6 gusting 12 34.4
2020-Aug-13 22:55 151 6 gusting 12 34.4
2020-Aug-13 22:50 144 5 gusting 12 34.4
2020-Aug-13 22:45 101 4 gusting 11 35.0
2020-Aug-13 22:35 173 4 gusting 11 35.0
2020-Aug-13 22:25 176 5 gusting 12 35.0
2020-Aug-13 22:20 114 5 gusting 12 35.0
2020-Aug-13 22:15 146 6 gusting 13 35.0
2020-Aug-13 22:10 183 5 gusting 13 35.0
2020-Aug-13 22:05 161 5 gusting 12 35.0
2020-Aug-13 21:55 231 4 gusting 9 34.4
2020-Aug-13 21:47 277 4 gusting 8 35.0
2020-Aug-13 21:40 103 4 gusting 8 35.0
2020-Aug-13 21:35 087 3 gusting 8 35.0
2020-Aug-13 21:30 142 5 gusting 10 35.0
2020-Aug-13 21:25 162 5 gusting 10 34.4
2020-Aug-13 21:20 123 5 gusting 9 34.4
2020-Aug-13 21:15 059 5 gusting 11 34.4
2020-Aug-13 21:10 190 3 gusting 11 34.4
2020-Aug-13 21:00 096 3 gusting 8 35.0
2020-Aug-13 20:54 091 3 gusting 8 35.0
2020-Aug-13 20:44 093 4 gusting 7 35.0
2020-Aug-13 20:39 082 4 gusting 10 35.6
2020-Aug-13 20:34 085 4 gusting 10 35.6
2020-Aug-13 20:29 088 2 gusting 7 35.6
2020-Aug-13 20:24 174 2 gusting 6 35.6
2020-Aug-13 20:19 109 2 gusting 6 35.6
2020-Aug-13 20:14 165 1 gusting 5 36.1
2020-Aug-13 20:09 121 1 gusting 5 36.1
2020-Aug-13 19:59 334 2 gusting 5 36.1
2020-Aug-13 19:54 232 3 gusting 8 36.1
2020-Aug-13 19:44 125 1 gusting 6 35.6
2020-Aug-13 19:39 181 1 gusting 4 35.6
2020-Aug-13 19:29 138 2 gusting 6 35.0
2020-Aug-13 19:24 213 3 gusting 6 35.0
2020-Aug-13 19:19 222 2 gusting 6 35.0
2020-Aug-13 19:14 040 1 gusting 7 35.0
2020-Aug-13 19:09 138 2 gusting 7 35.0
2020-Aug-13 19:04 141 1 gusting 4 35.0
2020-Aug-13 18:59 119 2 gusting 6 35.0
2020-Aug-13 18:54 230 2 gusting 6 35.0
2020-Aug-13 18:49 256 2 gusting 7 35.0
2020-Aug-13 18:34 277 3 gusting 8 34.4
2020-Aug-13 18:29 255 3 gusting 7 34.4
2020-Aug-13 18:24 254 2 gusting 6 34.4
2020-Aug-13 18:19 130 2 gusting 6 34.4
2020-Aug-13 18:14 185 2 gusting 6 34.4
2020-Aug-13 18:09 161 2 gusting 7 34.4
2020-Aug-13 18:04 211 3 gusting 7 33.9
2020-Aug-13 17:59 275 3 gusting 8 33.9
2020-Aug-13 17:49 134 2 gusting 6 33.9
2020-Aug-13 17:41 191 2 gusting 6 33.9
2020-Aug-13 17:34 244 1 gusting 6 33.9
2020-Aug-13 17:29 097 2 gusting 8 33.9
2020-Aug-13 17:24 246 3 gusting 8 33.3
2020-Aug-13 17:19 323 3 gusting 6 33.3
2020-Aug-13 17:14 190 3 gusting 6 33.3
2020-Aug-13 17:09 156 3 gusting 7 33.3
2020-Aug-13 17:04 202 2 gusting 7 32.8
2020-Aug-13 16:59 161 2 gusting 8 32.8
2020-Aug-13 16:54 238 2 gusting 8 32.8
2020-Aug-13 16:49 242 3 gusting 8 32.8
2020-Aug-13 16:44 244 4 gusting 8 32.8
2020-Aug-13 16:39 182 3 gusting 8 32.2
2020-Aug-13 16:34 195 3 gusting 8 32.2
2020-Aug-13 16:29 162 5 gusting 10 32.8
2020-Aug-13 16:23 161 4 gusting 10 32.2
2020-Aug-13 16:19 269 3 gusting 10 32.8
2020-Aug-13 16:14 231 3 gusting 7 32.2
2020-Aug-13 16:08 171 3 gusting 7 32.2
2020-Aug-13 16:03 263 3 gusting 8 32.2
2020-Aug-13 15:58 210 3 gusting 8 32.2
2020-Aug-13 15:54 238 3 gusting 7 31.7
2020-Aug-13 15:44 259 3 gusting 8 31.7
2020-Aug-13 15:38 244 3 gusting 9 31.7
2020-Aug-13 15:33 229 3 gusting 9 31.1
2020-Aug-13 15:29 200 3 gusting 7 31.1
2020-Aug-13 15:23 236 3 gusting 8 31.1
2020-Aug-13 15:19 207 4 gusting 8 31.1
2020-Aug-13 15:14 248 4 gusting 10 31.1
2020-Aug-13 15:08 242 4 gusting 13 30.6
2020-Aug-13 15:03 290 3 gusting 13 30.6
2020-Aug-13 14:59 175 3 gusting 9 30.6
2020-Aug-13 14:48 119 3 gusting 8 30.6
2020-Aug-13 14:43 207 3 gusting 8 30.0
2020-Aug-13 14:38 229 3 gusting 8 30.0
2020-Aug-13 14:33 213 2 gusting 6 30.0
2020-Aug-13 14:28 236 3 gusting 9 29.4
2020-Aug-13 14:23 263 3 gusting 9 29.4
2020-Aug-13 14:18 215 3 gusting 8 29.4
2020-Aug-13 14:13 288 3 gusting 8 29.4
2020-Aug-13 14:08 277 3 gusting 9 28.9
2020-Aug-13 14:03 240 3 gusting 9 28.9
2020-Aug-13 13:58 228 3 gusting 8 28.9
2020-Aug-13 13:53 240 3 gusting 8 28.3
2020-Aug-13 13:48 249 1 gusting 5 28.3
2020-Aug-13 13:38 232 2 gusting 5 27.8
2020-Aug-13 13:33 220 2 gusting 4 27.8
2020-Aug-13 13:28 235 2 gusting 4 27.8
2020-Aug-13 13:23 248 2 gusting 4 27.2
2020-Aug-13 13:18 271 1 gusting 4 27.2
2020-Aug-13 13:13 238 1 gusting 4 27.2
2020-Aug-13 13:08 228 1 gusting 4 26.7
2020-Aug-13 13:03 225 1 gusting 4 26.7
2020-Aug-13 12:58 213 0 gusting 3 26.7
2020-Aug-13 12:53 212 26.7
2020-Aug-13 12:43 212 26.1
2020-Aug-13 12:38 190 26.1
2020-Aug-13 12:33 190 26.1
2020-Aug-13 12:23 190 26.1
2020-Aug-13 12:18 190 26.1
2020-Aug-13 12:13 190 25.6
2020-Aug-13 12:08 190 25.6
2020-Aug-13 12:03 190 25.6
2020-Aug-13 11:58 190 25.6
2020-Aug-13 11:53 190 25.6
2020-Aug-13 11:48 190 0 gusting 1 25.6
2020-Aug-13 11:43 190 25.6
2020-Aug-13 11:38 190 0 gusting 1 25.6
2020-Aug-13 11:28 190 26.1
2020-Aug-13 11:23 190 26.1
2020-Aug-13 11:18 190 26.1
2020-Aug-13 11:13 190 26.1
2020-Aug-13 11:08 190 0 gusting 1 26.1
2020-Aug-13 11:03 190 0 gusting 1 26.1
2020-Aug-13 10:58 190 0 gusting 1 26.1
2020-Aug-13 10:53 190 26.1
2020-Aug-13 10:48 190 26.1
2020-Aug-13 10:43 190 0 gusting 1 26.1
2020-Aug-13 10:38 190 0 gusting 1 26.1
2020-Aug-13 10:33 190 0 gusting 1 26.1
2020-Aug-13 10:28 190 26.1
2020-Aug-13 10:23 190 26.1
2020-Aug-13 10:13 190 0 gusting 1 26.1
2020-Aug-13 10:03 190 0 gusting 1 26.1
2020-Aug-13 09:57 190 26.1
2020-Aug-13 09:48 190 26.1
2020-Aug-13 09:42 190 0 gusting 0 26.1
2020-Aug-13 09:37 190 26.7
2020-Aug-13 09:32 190 26.7
2020-Aug-13 09:27 190 26.7
2020-Aug-13 09:22 190 26.7
2020-Aug-13 09:08 190 26.7
2020-Aug-13 08:57 190 26.7
2020-Aug-13 08:52 190 26.7
2020-Aug-13 08:47 190 26.7
2020-Aug-13 08:42 190 26.7
2020-Aug-13 08:37 190 26.7
2020-Aug-13 08:32 190 26.7
2020-Aug-13 08:27 190 26.7
2020-Aug-13 08:22 190 0 gusting 1 26.7
2020-Aug-13 08:17 190 26.7
2020-Aug-13 08:12 190 26.7
2020-Aug-13 08:07 190 26.7
2020-Aug-13 08:02 190 26.7
2020-Aug-13 07:57 190 26.7
2020-Aug-13 07:52 190 26.7
2020-Aug-13 07:47 190 26.7
2020-Aug-13 07:42 190 26.7
2020-Aug-13 07:37 190 26.7
2020-Aug-13 07:32 190 26.7
2020-Aug-13 07:27 190 26.7
2020-Aug-13 07:24 190 26.7
2020-Aug-13 07:17 190 26.7
2020-Aug-13 07:12 190 27.2
2020-Aug-13 07:09 190 27.2
2020-Aug-13 07:01 190 27.2
2020-Aug-13 06:56 190 27.2
2020-Aug-13 06:52 190 27.2
2020-Aug-13 06:46 190 27.2
2020-Aug-13 06:42 190 27.2
2020-Aug-13 06:37 190 27.2
2020-Aug-13 06:31 190 27.2
2020-Aug-13 06:26 190 27.2
2020-Aug-13 06:21 190 27.2
2020-Aug-13 06:16 190 0 gusting 1 27.2
2020-Aug-13 06:11 190 0 gusting 1 27.2
2020-Aug-13 06:06 190 0 gusting 4 27.2
2020-Aug-13 06:01 190 1 gusting 4 27.2
2020-Aug-13 05:56 186 1 gusting 4 27.8
2020-Aug-13 05:51 181 1 gusting 5 27.8
2020-Aug-13 05:46 175 1 gusting 5 27.8
2020-Aug-13 05:41 159 1 gusting 4 27.8
2020-Aug-13 05:39 159 1 gusting 4 27.8
2020-Aug-13 05:31 162 1 gusting 4 27.8
2020-Aug-13 05:26 198 1 gusting 5 27.8
2020-Aug-13 05:16 182 1 gusting 6 27.8
2020-Aug-13 05:11 191 1 gusting 6 27.8
2020-Aug-13 05:06 238 2 gusting 5 27.8
2020-Aug-13 05:01 175 2 gusting 6 27.8
2020-Aug-13 04:56 183 1 gusting 6 27.8
2020-Aug-13 04:51 200 1 gusting 4 27.8
2020-Aug-13 04:47 246 1 gusting 5 27.8
2020-Aug-13 04:41 161 1 gusting 5 27.8
2020-Aug-13 04:36 171 1 gusting 3 27.8
2020-Aug-13 04:31 175 1 gusting 4 28.3
2020-Aug-13 04:26 181 2 gusting 4 28.3
2020-Aug-13 04:21 203 2 gusting 5 28.3
2020-Aug-13 04:16 185 1 gusting 5 28.3
2020-Aug-13 04:11 177 0 gusting 3 28.3
2020-Aug-13 04:06 172 1 gusting 6 28.3
2020-Aug-13 04:01 170 1 gusting 6 28.3
2020-Aug-13 03:56 253 1 gusting 4 28.3
2020-Aug-13 03:46 237 1 gusting 6 28.3
2020-Aug-13 03:41 191 1 gusting 6 28.3
2020-Aug-13 03:36 171 1 gusting 5 28.3
2020-Aug-13 03:31 175 2 gusting 5 28.3
2020-Aug-13 03:28 169 2 gusting 6 28.3
2020-Aug-13 03:21 176 2 gusting 6 28.9
2020-Aug-13 03:15 202 1 gusting 6 28.9
2020-Aug-13 03:11 209 2 gusting 6 28.9
2020-Aug-13 03:05 184 2 gusting 6 28.9
2020-Aug-13 03:00 155 2 gusting 8 28.9
2020-Aug-13 02:55 142 2 gusting 8 28.9
2020-Aug-13 02:50 160 3 gusting 8 28.9
2020-Aug-13 02:45 171 3 gusting 8 29.4
2020-Aug-13 02:40 211 3 gusting 8 29.4
2020-Aug-13 02:38 191 4 gusting 8 29.4
2020-Aug-13 02:30 173 4 gusting 7 29.4
2020-Aug-13 02:25 180 2 gusting 6 29.4
2020-Aug-13 02:20 217 1 gusting 5 29.4
2020-Aug-13 02:15 179 2 gusting 6 29.4
2020-Aug-13 02:10 182 2 gusting 6 29.4
2020-Aug-13 02:05 177 3 gusting 8 30.0
2020-Aug-13 02:00 167 4 gusting 8 30.0
2020-Aug-13 01:55 128 4 gusting 7 30.0
2020-Aug-13 01:50 161 4 gusting 11 30.0
2020-Aug-13 01:45 156 5 gusting 13 30.0
2020-Aug-13 01:40 157 4 gusting 13 30.0
2020-Aug-13 01:35 134 3 gusting 9 30.0
2020-Aug-13 01:30 165 4 gusting 9 30.6
2020-Aug-13 01:25 182 3 gusting 10 30.6
2020-Aug-13 01:20 180 4 gusting 10 30.6
2020-Aug-13 01:15 313 4 gusting 11 30.6
2020-Aug-13 01:10 204 4 gusting 11 30.6
2020-Aug-13 01:05 167 5 gusting 9 30.6
2020-Aug-13 01:00 177 6 gusting 14 31.1
2020-Aug-13 00:55 179 6 gusting 14 31.1
2020-Aug-13 00:50 225 7 gusting 15 31.1
2020-Aug-13 00:45 178 6 gusting 15 31.1
2020-Aug-13 00:40 156 5 gusting 13 31.1
2020-Aug-13 00:35 182 6 gusting 11 31.7
2020-Aug-13 00:30 162 6 gusting 12 31.7
2020-Aug-13 00:25 190 5 gusting 12 31.7
2020-Aug-13 00:20 144 5 gusting 12 31.7
2020-Aug-13 00:15 195 6 gusting 12 31.7
2020-Aug-13 00:10 182 6 gusting 13 31.7
2020-Aug-13 00:05 181 6 gusting 13 31.7
2020-Aug-13 00:00 179 6 gusting 12 31.7
2020-Aug-12 23:55 164 6 gusting 12 32.2
2020-Aug-12 23:50 163 5 gusting 12 32.2
2020-Aug-12 23:45 119 5 gusting 10 32.8
2020-Aug-12 23:40 144 5 gusting 12 32.8
2020-Aug-12 23:35 182 6 gusting 12 32.8
2020-Aug-12 23:30 119 6 gusting 12 33.3
2020-Aug-12 23:27 112 5 gusting 13 33.3
2020-Aug-12 23:20 138 5 gusting 13 33.3
2020-Aug-12 23:15 130 6 gusting 13 33.3
2020-Aug-12 23:10 184 6 gusting 13 33.3
2020-Aug-12 23:00 118 6 gusting 13 33.3
2020-Aug-12 22:55 151 6 gusting 13 33.3
2020-Aug-12 22:50 146 6 gusting 13 33.3
2020-Aug-12 22:40 202 5 gusting 9 32.8
2020-Aug-12 22:35 118 4 gusting 8 32.8
2020-Aug-12 22:30 110 3 gusting 7 32.8
2020-Aug-12 22:25 016 4 gusting 7 32.8
2020-Aug-12 22:20 073 5 gusting 8 32.8
2020-Aug-12 22:15 114 4 gusting 8 32.8
2020-Aug-12 22:10 098 4 gusting 10 32.8
2020-Aug-12 22:05 117 4 gusting 10 33.3
2020-Aug-12 22:00 092 5 gusting 10 33.3
2020-Aug-12 21:55 348 5 gusting 10 33.3
2020-Aug-12 21:50 130 5 gusting 10 33.9
2020-Aug-12 21:45 088 5 gusting 12 33.9
2020-Aug-12 21:40 074 6 gusting 12 33.9
2020-Aug-12 21:35 113 6 gusting 13 34.4
2020-Aug-12 21:30 130 6 gusting 13 35.0
2020-Aug-12 21:24 095 6 gusting 13 35.6
2020-Aug-12 21:20 145 6 gusting 13 35.6
2020-Aug-12 21:14 086 6 gusting 12 36.1
2020-Aug-12 21:10 157 5 gusting 11 36.1
2020-Aug-12 20:59 136 4 gusting 10 36.7
2020-Aug-12 20:54 116 3 gusting 8 36.1
2020-Aug-12 20:49 143 3 gusting 8 36.1
2020-Aug-12 20:44 096 4 gusting 10 36.7
2020-Aug-12 20:40 153 3 gusting 10 36.7
2020-Aug-12 20:34 158 2 gusting 6 36.7
2020-Aug-12 20:24 177 1 gusting 7 36.7
2020-Aug-12 20:20 167 1 gusting 7 36.7
2020-Aug-12 20:14 182 2 gusting 6 36.7
2020-Aug-12 20:09 170 2 gusting 6 36.7
2020-Aug-12 20:04 190 2 gusting 6 36.7
2020-Aug-12 19:59 125 1 gusting 6 36.7
2020-Aug-12 19:54 296 1 gusting 3 36.7
2020-Aug-12 19:49 313 1 gusting 6 36.1
2020-Aug-12 19:44 084 0 gusting 6 36.1
2020-Aug-12 19:39 236 2 gusting 6 36.1
2020-Aug-12 19:34 185 3 gusting 6 35.6
2020-Aug-12 19:29 135 3 gusting 7 35.6
2020-Aug-12 19:24 166 3 gusting 8 35.0
2020-Aug-12 19:19 198 2 gusting 8 35.0
2020-Aug-12 19:14 285 2 gusting 6 35.0
2020-Aug-12 19:09 311 2 gusting 6 35.0
2020-Aug-12 19:04 183 1 gusting 6 35.0
2020-Aug-12 18:59 271 1 gusting 4 35.0
2020-Aug-12 18:54 314 2 gusting 6 35.0
2020-Aug-12 18:49 246 2 gusting 6 35.0
2020-Aug-12 18:44 340 2 gusting 6 35.0
2020-Aug-12 18:39 289 2 gusting 6 35.0
2020-Aug-12 18:34 294 2 gusting 6 35.0
2020-Aug-12 18:29 247 1 gusting 6 34.4
2020-Aug-12 18:24 234 2 gusting 6 34.4
2020-Aug-12 18:19 263 3 gusting 6 34.4
2020-Aug-12 18:14 288 2 gusting 7 34.4
2020-Aug-12 18:04 275 1 gusting 6 34.4
2020-Aug-12 17:54 189 2 gusting 7 33.9
2020-Aug-12 17:49 212 3 gusting 6 34.4
2020-Aug-12 17:44 238 3 gusting 8 34.4
2020-Aug-12 17:39 324 2 gusting 6 33.9
2020-Aug-12 17:29 163 2 gusting 11 33.9
2020-Aug-12 17:19 252 3 gusting 11 33.9
2020-Aug-12 17:14 226 3 gusting 10 33.9
2020-Aug-12 17:09 183 2 gusting 7 33.9
2020-Aug-12 17:04 267 2 gusting 6 33.3
2020-Aug-12 16:59 209 3 gusting 6 33.3
2020-Aug-12 16:54 289 3 gusting 6 33.3
2020-Aug-12 16:49 234 4 gusting 12 33.3
2020-Aug-12 16:44 220 4 gusting 12 33.3
2020-Aug-12 16:39 248 3 gusting 8 32.8
2020-Aug-12 16:34 211 3 gusting 11 32.8
2020-Aug-12 16:29 257 2 gusting 11 32.8
2020-Aug-12 16:24 245 3 gusting 7 32.8
2020-Aug-12 16:19 275 4 gusting 8 32.8
2020-Aug-12 16:14 224 4 gusting 8 32.8
2020-Aug-12 16:09 243 3 gusting 8 32.8
2020-Aug-12 16:04 298 3 gusting 6 32.8